Location: New Plymouth
(39.0670°S, 174.0830°E)
Time: 06:50:35
(UTC+13:00)

ISS - Visible Passes

Search period start: 25 March 2019 00:00
Search period end: 04 April 2019 00:00
Orbit: 408 x 411 km, 51.6° (Epoch: 24 March)

Date Brightness Start Highest point End Pass type
(mag) Time Alt. Az. Time Alt. Az. Time Alt. Az.
25 Mar -0.9 06:40:37 10° NNE 06:42:35 15° NE 06:44:34 10° E visible
27 Mar -2.5 06:34:27 10° NNW 06:37:35 39° NE 06:40:46 10° ESE visible
28 Mar -1.6 05:46:01 18° NNE 05:47:03 21° NE 05:49:39 10° E visible
29 Mar -3.8 06:30:43 22° WNW 06:32:43 74° SW 06:36:06 10° SE visible
30 Mar -3.0 05:42:29 51° ENE 05:42:29 51° ENE 05:45:22 10° ESE visible
31 Mar -0.3 04:54:08 12° ESE 04:54:08 12° ESE 04:54:25 10° ESE visible
31 Mar -2.7 06:26:55 25° WSW 06:27:59 31° SSW 06:31:04 10° SE visible
01 Apr -2.2 05:38:28 31° SSE 05:38:28 31° SSE 05:40:30 10° SE visible
01 Apr -1.4 07:12:31 10° SW 07:14:23 14° SSW 07:16:14 10° SSE visible
02 Apr -1.8 06:22:42 17° SW 06:23:23 18° SSW 06:25:47 10° SSE visible
03 Apr -1.3 05:34:06 17° SSE 05:34:06 17° SSE 05:35:18 10° SSE visible
03 Apr -1.2 07:09:09 10° SSW 07:09:57 11° S 07:10:46 10° S visible
